This is the latest recevied weather packets stored in our database for station/object N1TKS. If no packets are shown the sender has not sent any weather packets the latest 10 day(s).
| Time | Temp. | Humidity | Pressure | Rain* | Wind** | Luminosity | Snow |
|---|---|---|---|---|---|---|---|
| 1777826679 | 12.22° C | 38% | 1011.3 hPa | 0 mm | - | - | - |
| 1777826514 | 12.22° C | 38% | 1011.3 hPa | 0 mm | - | - | - |
| 1777826217 | 12.22° C | 37% | 1011.2 hPa | 0 mm | - | - | - |
| 1777825700 | 11.67° C | 40% | 1011.4 hPa | 0 mm | - | - | - |
| 1777825614 | 11.67° C | 40% | 1011.4 hPa | 0 mm | - | - | - |
| 1777825313 | 11.67° C | 41% | 1011.4 hPa | 0 mm | - | - | - |
| 1777825013 | 11.11° C | 40% | 1011.5 hPa | 0 mm | - | - | - |
| 1777824716 | 11.67° C | 40% | 1011.5 hPa | 0 mm | - | - | - |
| 1777824417 | 11.11° C | 44% | 1011.5 hPa | 0 mm | - | - | - |
| 1777824116 | 11.11° C | 44% | 1011.6 hPa | 0 mm | - | - | - |
| 1777823814 | 11.11° C | 44% | 1011.6 hPa | 0 mm | - | - | - |
| 1777823514 | 11.11° C | 44% | 1011.6 hPa | 0 mm | - | - | - |
| 1777823214 | 11.11° C | 44% | 1011.6 hPa | 0 mm | - | - | - |
| 1777822914 | 11.11° C | 44% | 1011.7 hPa | 0 mm | - | - | - |
| 1777822314 | 10.56° C | 44% | 1011.7 hPa | 0 mm | - | - | - |
| 1777822016 | 10.56° C | 47% | 1011.7 hPa | 0 mm | - | - | - |
| 1777821414 | 10.56° C | 46% | 1011.7 hPa | 0 mm | - | - | - |
| 1777821114 | 10.56° C | 45% | 1011.7 hPa | 0 mm | - | - | - |
| 1777820818 | 11.11° C | 46% | 1011.8 hPa | 0 mm | - | - | - |
| 1777820513 | 11.67° C | 48% | 1011.8 hPa | 0 mm | - | - | - |
| 1777820214 | 11.67° C | 48% | 1011.8 hPa | 0 mm | - | - | - |
| 1777819914 | 11.11° C | 49% | 1011.9 hPa | 0 mm | - | - | - |
| 1777819614 | 10.56° C | 52% | 1011.8 hPa | 0 mm | - | - | - |
| 1777819320 | 10.56° C | 52% | 1011.8 hPa | 0 mm | - | - | - |
| 1777819050 | 10.56° C | 48% | 1011.8 hPa | 0 mm | - | - | - |
* Rain latest hour (hover to see other rain measurements)
** Current wind speed in m/s (hover to see current wind gust speed)